Location: Harmony
(28.2000°N, 81.1500°W)
Time: 06:03:47
(UTC-04:00)

USA 215 - Pass Details

Date: 18 December 2017
Orbit: 1101 x 1107 km, 123.0° (Epoch: 18 April)

Event Time Altitude Azimuth Distance (km) Brightness Sun altitude
Rises 18:37:15 0° 129° (SE) 3,904 5.8 -14.1°
Reaches altitude 10° 18:39:45 10° 127° (SE) 2,949 5.2 -14.6°
Maximum altitude 18:46:11 66° 46° (NE) 1,195 3.2 -15.9°
Drops below altitude 10° 18:52:38 10° 326° (NNW) 2,961 5.7 -17.3°
Sets 18:55:08 0° 324° (NW) 3,922 6.4 -17.8°
